Weather History for Winfield, KS

Change the Weather History Date:

Monday, November 18, 2013

  Actual Average Record
Temperature  
Mean Temperature 47 °F -  
Max Temperature 61 °F 55 °F 75 °F (2007)
Min Temperature 33 °F 35 °F 23 °F (2000)
Degree Days  
Heating Degree Days 18    
Moisture  
Dew Point 25 °F    
Average Humidity 46    
Maximum Humidity 75    
Minimum Humidity 18    
Precipitation  
Precipitation 0.00 in - - ()
Sea Level Pressure  
Sea Level Pressure 30.24 in    
Wind  
Wind Speed 4 mph (East)    
Max Wind Speed 8 mph    
Max Gust Speed -    
Visibility 10 miles    
Events      
Averages and records for this station are not official NWS values.
T = Trace of Precipitation, MM = Missing Value Source: NWS Daily Summary

Daily Weather History Graph

Daily Weather History Graph

Search for Another Location

Airport:

Trip Planner

Search our weather history database for the weather conditions in past years. The results will help you decide how hot, cold, wet, or windy it might be!

Date:

Astronomy

Nov. 18, 2013 Rise Set
Actual Time 7:10 AM CST 5:15 PM CST
Civil Twilight 6:42 AM CST 5:43 PM CST
Nautical Twilight 6:10 AM CST 6:15 PM CST
Astronomical Twilight 5:39 AM CST 6:46 PM CST
Moon 6:19 PM CST (11/18) 7:59 AM CST (11/18)
Length of Visible Light 11h 01m
Length of Day
10h 05m
Full, 99% of the Moon is Illuminated
Nov 18
Full
Nov 25
Last Quarter
Dec 2
New
Dec 9
First Quarter
Dec 17
Full

Hourly Weather History & Observations

Time (CST) Temp. Windchill Dew Point Humidity Pressure Visibility Wind Dir Wind Speed Gust Speed Precip Events Conditions
12:54 AM 43.0 °F 40.3 °F 26.1 °F 51% 30.16 in 10.0 mi North 4.6 mph - N/A   Clear
1:54 AM 37.0 °F 34.5 °F 26.1 °F 65% 30.17 in 10.0 mi WSW 3.5 mph - N/A   Clear
2:54 AM 36.0 °F 33.3 °F 27.0 °F 70% 30.18 in 10.0 mi North 3.5 mph - N/A   Clear
3:54 AM 34.0 °F 29.8 °F 27.0 °F 75% 30.19 in 10.0 mi North 4.6 mph - N/A   Clear
4:54 AM 37.9 °F - 26.1 °F 62% 30.22 in 10.0 mi Calm Calm - N/A   Clear
5:54 AM 36.0 °F 33.3 °F 26.1 °F 67% 30.24 in 10.0 mi WNW 3.5 mph - N/A   Clear
6:54 AM 33.1 °F - 26.1 °F 75% 30.27 in 10.0 mi Calm Calm - N/A   Clear
7:54 AM 37.0 °F - 28.0 °F 70% 30.29 in 10.0 mi Calm Calm - N/A   Clear
8:54 AM 45.0 °F 43.5 °F 30.9 °F 58% 30.30 in 10.0 mi North 3.5 mph - N/A   Clear
9:54 AM 50.0 °F - 30.0 °F 46% 30.30 in 10.0 mi North 3.5 mph - N/A   Clear
10:54 AM 55.0 °F - 28.9 °F 37% 30.30 in 10.0 mi Variable 4.6 mph - N/A   Clear
11:54 AM 57.9 °F - 19.9 °F 23% 30.28 in 10.0 mi East 4.6 mph - N/A   Clear
12:54 PM 61.0 °F - 17.1 °F 18% 30.26 in 10.0 mi SE 5.8 mph - N/A   Clear
1:54 PM 61.0 °F - 17.1 °F 18% 30.25 in 10.0 mi East 8.1 mph - N/A   Clear
2:54 PM 61.0 °F - 19.0 °F 20% 30.23 in 10.0 mi SE 6.9 mph - N/A   Clear
3:54 PM 60.1 °F - 19.9 °F 21% 30.24 in 10.0 mi SE 6.9 mph - N/A   Clear
4:54 PM 57.9 °F - 21.0 °F 24% 30.23 in 10.0 mi ESE 3.5 mph - N/A   Clear
5:54 PM 54.0 °F - 21.0 °F 28% 30.24 in 10.0 mi East 3.5 mph - N/A   Clear
6:54 PM 51.1 °F - 24.1 °F 35% 30.25 in 10.0 mi ESE 4.6 mph - N/A   Clear
7:54 PM 48.9 °F - 25.0 °F 39% 30.24 in 10.0 mi ESE 4.6 mph - N/A   Clear
8:54 PM 46.9 °F - 27.0 °F 46% 30.25 in 10.0 mi East 3.5 mph - N/A   Clear
9:54 PM 46.9 °F - 28.0 °F 48% 30.23 in 10.0 mi East 5.8 mph - N/A   Clear
10:54 PM 48.0 °F - 28.0 °F 46% 30.23 in 10.0 mi ESE 4.6 mph - N/A   Clear
11:54 PM 46.0 °F 44.8 °F 28.9 °F 51% 30.23 in 10.0 mi SE 3.5 mph - N/A   Clear